Location: Delmar
(42.6220°N, 73.8326°W)
Time: 05:17:16
(UTC+00:00)

Cosmos 1076 Rocket - Pass Details

Date: 29 October 2020
Orbit: 589 x 613 km, 82.5° (Epoch: 29 November)

Event Time Altitude Azimuth Distance (km) Brightness Sun altitude
Rises 23:18:15 0° 356° (N) 2,833 7.0 -16.5°
Reaches altitude 10° 23:20:29 10° 0° (N) 1,928 6.1 -16.9°
Maximum altitude 23:24:40 57° 79° (E) 702 3.4 -17.7°
Drops below altitude 10° 23:28:51 10° 159° (SSE) 1,921 5.9 -18.4°
Sets 23:31:05 0° 163° (SSE) 2,821 6.8 -18.9°
